GW7243 Weather Reports


time (UTC)temp
C
wind
direction
speed
KPH
gust
KPH
rain 1hr
cm
rain 24hr
cm
rain mn
cm
humidity
%
barometer
mb
20260504000304 14 347 0.0 3.2 0.00 0.00 0.00 82 1014.8
20260503235803 14 3 0.0 3.2 0.00 0.00 0.00 82 1014.6
20260503234804 14 112 0.0 1.6 0.00 0.00 0.00 82 1014.9
20260503234304 14 288 0.0 1.6 0.00 0.00 0.00 82 1015.0
20260503233303 15 292 1.6 4.8 0.00 0.00 0.00 82 1014.9
20260503232804 15 183 1.6 3.2 0.00 0.00 0.00 82 1015.1
20260503232305 15 170 3.2 3.2 0.00 0.00 0.00 81 1014.9
20260503231804 15 92 0.0 1.6 0.00 0.00 0.00 81 1014.8
20260503231303 15 240 1.6 3.2 0.00 0.00 0.00 80 1015.0
20260503225804 15 164 1.6 4.8 0.00 0.00 0.00 80 1014.9
20260503225304 14 157 3.2 3.2 0.00 0.00 0.00 80 1015.0
20260503224804 14 171 1.6 4.8 0.00 0.00 0.00 80 1015.0
20260503224304 14 180 3.2 4.8 0.00 0.00 0.00 80 1015.0
20260503223304 14 184 0.0 3.2 0.00 0.00 0.00 81 1015.1
20260503222804 14 315 1.6 1.6 0.00 0.00 0.00 80 1015.0
20260503222304 14 333 0.0 3.2 0.00 0.00 0.00 80 1015.2
20260503221804 14 186 4.8 8.0 0.00 0.00 0.00 80 1015.1
20260503221304 14 180 3.2 4.8 0.00 0.00 0.00 80 1014.9
20260503220304 14 167 4.8 4.8 0.00 0.00 0.00 80 1015.0
20260503215804 14 162 3.2 3.2 0.00 0.00 0.00 79 1015.0
20260503215304 14 155 1.6 3.2 0.00 0.00 0.00 79 1015.0
20260503214804 15 136 0.0 3.2 0.00 0.00 0.00 79 1015.1
20260503214304 15 166 0.0 1.6 0.00 0.00 0.00 79 1015.1
20260503213804 15 145 0.0 3.2 0.00 0.00 0.00 78 1015.0
20260503212305 15 262 3.2 8.0 0.00 0.00 0.00 77 1014.9
20260503211804 15 247 3.2 8.0 0.00 0.00 0.00 77 1014.8
20260503211304 15 242 4.8 9.7 0.00 0.00 0.00 77 1014.9
20260503210804 15 242 6.4 8.0 0.00 0.00 0.00 76 1014.8
20260503210304 15 257 4.8 9.7 0.00 0.00 0.00 75 1014.8
20260503205804 15 251 4.8 9.7 0.00 0.00 0.00 75 1014.9
20260503205305 15 276 4.8 8.0 0.00 0.00 0.00 74 1014.8
20260503204304 16 251 8.0 14.5 0.00 0.00 0.00 73 1014.7
20260503203804 16 277 6.4 12.9 0.00 0.00 0.00 73 1014.6
20260503203304 16 266 8.0 11.3 0.00 0.00 0.00 73 1014.5
20260503202804 16 258 8.0 11.3 0.00 0.00 0.00 72 1014.4
20260503202304 16 262 9.7 16.1 0.00 0.00 0.00 72 1014.5
20260503201804 16 261 11.3 14.5 0.00 0.00 0.00 71 1014.4
20260503201304 16 266 11.3 19.3 0.00 0.00 0.00 71 1014.4
20260503200804 16 256 11.3 19.3 0.00 0.00 0.00 71 1014.3
20260503200304 16 262 11.3 19.3 0.00 0.00 0.00 70 1014.3
20260503195804 16 250 11.3 16.1 0.00 0.00 0.00 70 1014.1
20260503195305 16 257 11.3 20.9 0.00 0.00 0.00 70 1014.0
20260503194804 16 250 9.7 16.1 0.00 0.00 0.00 69 1014.0
20260503194304 16 256 14.5 20.9 0.00 0.00 0.00 68 1014.0
20260503193804 17 252 11.3 19.3 0.00 0.00 0.00 68 1013.9
20260503193304 17 257 12.9 19.3 0.00 0.00 0.00 67 1013.8
20260503192804 17 249 8.0 12.9 0.00 0.00 0.00 67 1013.9
20260503192305 17 265 9.7 14.5 0.00 0.00 0.00 65 1013.8
20260503191804 17 251 14.5 20.9 0.00 0.00 0.00 64 1013.8
20260503190804 17 255 16.1 22.5 0.00 0.00 0.00 64 1013.8
20260503190304 17 266 14.5 22.5 0.00 0.00 0.00 63 1013.8
20260503185804 17 267 16.1 25.7 0.00 0.00 0.00 63 1013.7
20260503185305 18 259 17.7 32.2 0.00 0.00 0.00 61 1013.5
20260503184804 18 253 14.5 24.1 0.00 0.00 0.00 61 1013.4
20260503184304 18 249 19.3 27.4 0.00 0.00 0.00 60 1013.5
20260503183304 18 264 16.1 22.5 0.00 0.00 0.00 59 1013.3
20260503182804 18 224 16.1 25.7 0.00 0.00 0.00 58 1013.6
20260503182305 18 245 20.9 25.7 0.00 0.00 0.00 57 1013.5
20260503181804 18 240 16.1 27.4 0.00 0.00 0.00 56 1013.6
20260503181303 19 250 16.1 27.4 0.00 0.00 0.00 54 1013.4
20260503180304 19 257 17.7 27.4 0.00 0.00 0.00 56 1013.3
20260503175803 20 249 22.5 29.0 0.00 0.00 0.00 55 1013.3
20260503174304 20 239 22.5 32.2 0.00 0.00 0.00 53 1013.3
20260503173804 20 261 20.9 33.8 0.00 0.00 0.00 54 1013.2
20260503173304 21 245 27.4 35.4 0.00 0.00 0.00 52 1013.3
20260503172804 21 258 16.1 25.7 0.00 0.00 0.00 52 1013.3
20260503172305 21 254 16.1 32.2 0.00 0.00 0.00 52 1013.3
20260503171304 21 227 16.1 32.2 0.00 0.00 0.00 52 1013.3
20260503170804 20 234 19.3 27.4 0.00 0.00 0.00 53 1013.2
20260503150804 22 251 22.5 32.2 0.00 0.00 0.00 41 1013.6
20260503150304 22 251 24.1 33.8 0.00 0.00 0.00 43 1013.4
20260503140304 22 237 12.9 32.2 0.00 0.00 0.00 45 1013.8
20260503131303 22 243 19.3 25.7 0.00 0.00 0.00 48 1014.1
20260503130804 22 238 19.3 24.1 0.00 0.00 0.00 47 1014.2
20260503130304 22 208 16.1 22.5 0.00 0.00 0.00 48 1014.3
20260503110803 21 287 9.7 16.1 0.00 0.00 0.00 50 1015.3
20260503110304 20 237 11.3 20.9 0.00 0.00 0.00 55 1015.5
20260503090304 18 228 9.7 12.9 0.00 0.00 0.00 70 1015.3
20260503081304 17 268 4.8 11.3 0.00 0.00 0.00 79 1015.5
20260503080804 17 274 6.4 11.3 0.00 0.00 0.00 80 1015.6
20260503080304 16 279 8.0 11.3 0.00 0.00 0.00 81 1015.5
20260503072804 16 281 3.2 8.0 0.00 0.00 0.00 84 1015.4
20260503072305 16 305 4.8 9.7 0.00 0.00 0.00 85 1015.5
20260503071804 16 327 8.0 11.3 0.00 0.00 0.00 86 1015.3
20260503070804 16 297 8.0 11.3 0.00 0.00 0.00 88 1015.3
20260503070304 16 299 6.4 9.7 0.00 0.00 0.00 89 1015.4
20260503060304 15 309 9.7 12.9 0.00 0.00 0.00 91 1015.2
20260503054804 15 317 9.7 14.5 0.00 0.00 0.00 91 1014.9
20260503054304 15 291 8.0 14.5 0.00 0.00 0.00 91 1014.9
20260503053804 15 306 8.0 12.9 0.00 0.00 0.00 91 1014.9
20260503053304 15 288 9.7 12.9 0.00 0.00 0.00 91 1014.8
20260503052804 15 294 9.7 12.9 0.00 0.00 0.00 91 1014.8
20260503052305 15 314 8.0 9.7 0.00 0.00 0.00 91 1014.7
20260503051804 15 317 3.2 4.8 0.00 0.00 0.00 91 1014.6
20260503051304 15 242 1.6 4.8 0.00 0.00 0.00 91 1014.8
20260503050804 15 277 3.2 8.0 0.00 0.00 0.00 91 1014.7
20260503045804 15 279 6.4 9.7 0.00 0.00 0.00 91 1014.7
20260503044804 15 241 4.8 8.0 0.00 0.00 0.00 91 1014.7
20260503044304 15 302 3.2 8.0 0.00 0.00 0.00 91 1014.7
20260503043804 15 291 4.8 11.3 0.00 0.00 0.00 91 1014.6
20260503043304 15 240 4.8 9.7 0.00 0.00 0.00 91 1014.7
20260503042804 15 296 6.4 11.3 0.00 0.00 0.00 91 1014.7
20260503041304 15 214 4.8 4.8 0.00 0.00 0.00 90 1014.8
20260503040803 15 225 3.2 4.8 0.00 0.00 0.00 90 1014.8
20260503040304 15 288 3.2 4.8 0.00 0.00 0.00 90 1014.7
20260503035804 15 289 1.6 8.0 0.00 0.00 0.00 89 1015.0
20260503035305 15 213 4.8 8.0 0.00 0.00 0.00 89 1014.7
20260503034304 15 8 0.0 0.0 0.00 0.00 0.00 89 1014.9
20260503033804 15 80 0.0 3.2 0.00 0.00 0.00 89 1014.9
20260503033304 15 156 1.6 3.2 0.00 0.00 0.00 89 1014.9
20260503032804 15 184 1.6 3.2 0.00 0.00 0.00 89 1015.0
20260503031804 15 8 0.0 3.2 0.00 0.00 0.00 88 1015.1
20260503031304 15 279 0.0 1.6 0.00 0.00 0.00 88 1015.0
20260503030804 15 233 1.6 3.2 0.00 0.00 0.00 87 1015.1
20260503030304 15 101 0.0 3.2 0.00 0.00 0.00 87 1015.0
20260503025804 16 194 0.0 3.2 0.00 0.00 0.00 86 1015.2
20260503025305 16 47 1.6 4.8 0.00 0.00 0.00 86 1015.2
20260503024805 16 275 3.2 4.8 0.00 0.00 0.00 86 1015.1
20260503024304 15 324 0.0 1.6 0.00 0.00 0.00 86 1015.1
20260503023804 15 220 0.0 3.2 0.00 0.00 0.00 86 1015.0
20260503022804 15 136 0.0 0.0 0.00 0.00 0.00 86 1015.1
20260503022305 15 276 0.0 3.2 0.00 0.00 0.00 86 1015.1
20260503021804 15 324 1.6 3.2 0.00 0.00 0.00 86 1015.1
20260503020805 15 111 1.6 1.6 0.00 0.00 0.00 85 1015.4
20260503020304 15 339 1.6 1.6 0.00 0.00 0.00 85 1015.4
20260503015804 15 154 0.0 1.6 0.00 0.00 0.00 85 1015.3
20260503015305 15 321 1.6 3.2 0.00 0.00 0.00 85 1015.3
20260503014804 15 180 0.0 1.6 0.00 0.00 0.00 85 1015.3
20260503014304 15 155 0.0 1.6 0.00 0.00 0.00 85 1015.3
20260503013804 15 233 0.0 3.2 0.00 0.00 0.00 85 1015.5
20260503013304 15 322 0.0 0.0 0.00 0.00 0.00 85 1015.4
20260503012804 15 225 0.0 0.0 0.00 0.00 0.00 85 1015.7
20260503012305 15 231 0.0 1.6 0.00 0.00 0.00 85 1015.7
20260503011304 15 348 0.0 1.6 0.00 0.00 0.00 85 1015.8
20260503010804 15 306 1.6 3.2 0.00 0.00 0.00 85 1015.8
20260503010304 15 324 0.0 3.2 0.00 0.00 0.00 84 1015.7
20260503005804 15 218 1.6 3.2 0.00 0.00 0.00 84 1016.0
20260503005305 15 319 1.6 3.2 0.00 0.00 0.00 84 1016.1
20260503004304 15 174 0.0 1.6 0.00 0.00 0.00 83 1016.0
20260503003804 15 158 0.0 3.2 0.00 0.00 0.00 83 1016.2
20260503002804 15 146 0.0 3.2 0.00 0.00 0.00 83 1016.3
20260503001804 15 359 0.0 1.6 0.00 0.00 0.00 82 1016.2
20260503001304 15 147 0.0 1.6 0.00 0.00 0.00 82 1016.3
20260503000803 15 91 0.0 4.8 0.00 0.00 0.00 82 1016.2